User: anonymous   Login
Location: Unspecified
(0.0000°N, 0.0000°E)
Time: 09:23:20
(UTC+00:00)
Language:

SAUDISAT 4 - Orbit

View from above orbital plane
View from above orbital plane
View from above satellite
View from above satellite

Ground track
Ground track

The orbit data is extracted from the following two-line orbital elements,

1 40016U 14033G   17086.63873646 +.00000099 +00000-0 +21961-4 0  9998
2 40016 097.8737 336.3930 0048167 188.7091 171.3288 14.75096778149111
Epoch (UTC): 27 March 2017 15:19:46
Eccentricity: 0.0048167
inclination: 97.8737°
perigee height: 611 km
apogee height: 678 km
right ascension of ascending node: 336.3930°
argument of perigee: 188.7091°
revolutions per day: 14.75096778
mean anomaly at epoch: 171.3288°
orbit number at epoch: 14911

The dashed part of the orbit path shows where the satellite is in the earth's shadow,  

DLR